Tracking 31027 objects as of 19-Jul-2025
HD Live streaming from Space Station
objects crossing your sky now

STARLINK-5749

Track STARLINK-5749 now!
10-day predictions
STARLINK-5749 is classified as:


NORAD ID: 55569
Int'l Code: 2023-020A
Perigee: 565.1 km
Apogee: 567.3 km
Inclination: 43.0 °
Period: 95.8 minutes
Semi major axis: 6937 km
RCS: Unknown
Launch date: February 12, 2023
Source: United States (US)
Launch site: AIR FORCE EASTERN TEST RANGE (AFETR)
Your satellite tracking list
DEWASAT-2
Track 1 satellite(s)




NASA's NSSDC Master Catalog

Two Line Element Set (TLE):
1 55569U 23020A   25199.34579833 -.00000799  00000-0 -44092-4 0  9995
2 55569  43.0020 198.3635 0001564 270.2464  89.8199 15.02536544134734
Source of the keplerian elements: AFSPC